Quonset State Airport North Kingstown US
ICAO: KOQU
IATA: OQU
Category: Medium
Scheduled Services: No

Elevation: 18 ft
TransAlt. 18000 ft.

Airport Communications:
PROVIDENCE APP/DEP:135.4
CTAF:126.35
GND:134.5
ANG OPS:38.33
ARNG OPS:38.95
BRIDGEPORT RDO:122.3
TWR:126.35
UNICOM:122.95

KOQU Zoom In..

If you have problems with the map follow the link
https://www.worldairports.se/pages/airport.php?
ICAO=KOQU

Runways:

(A) RW 05 length 4000 ft width 75 ft
---- / hdg 49

(B) RW 16 length 7504 ft width 150 ft
ILS 109.50 / hdg 160

(C) RW 23 length 4000 ft width 75 ft
---- / hdg 229

(D) RW 34 length 7504 ft width 150 ft
---- / hdg 340

Location; KOQU
Day. 16 / Time. 02.50 Zulu
* Altimeter: 30.18
* Temperature: 01° c. 33.8°f.
* Wind from: 090° Speed 18 kn.
Dewpoint: 00° c.
Visibility: 1 m.
Conditions: Snow.Conditions: Mist.

KOQU 160250Z 09018KT 1 1/2SM SN BR VV006 01/00 A3018


Wind From 090°
Speed 18 kn.

 
 
jpsmedia.com for Web Design worldairports.se 2018   terms of use